Regional Weather Roundup
Issued by NWS Grand Forks, ND

Home | Current Version | Previous Version | Text Only | Print | Product List | Glossary Off
Versions: 1 2 3 4 5 6 7 8 9 10 11 12 13 14 15 16 17 18 19 20 21 22 23 24 25 26 27 28 29 30 31 32 33 34 35 36 37 38 39 40 41 42 43 44 45 46 47 48 49 50

000
ASUS43 KFGF 221810
RWRFGF
PRAIRIE TO PINES  WEATHER ROUNDUP
NATIONAL WEATHER SERVICE EASTERN NORTH DAKOTA/GRAND FORKS ND
100 PM CDT SUN APR 22 2018

 **SATELLITE DATA USED TO AUGMENT SKY COVER AT AUTOMATED STATIONS**
 *****  WEATHER ACROSS EASTERN NORTH DAKOTA  *****

CITY           SKY/WX    TMP DP  RH WIND       PRES   REMARKS
GRAND FORKS    FAIR      56  43  61 S21G29    30.19F
6HR MIN TEMP:  34; 6HR MAX TEMP:  57;

GRAND FRKS AFB NOT AVBL
GRAND FRKS NWS   N/A     56  41  58 S24       30.17F
DEVILS LAKE    FAIR      57  39  51 W16       30.15S
6HR MIN TEMP:  39; 6HR MAX TEMP:  57;

FARGO          FAIR      61  38  42 S15G28    30.22F
WAHPETON ARPT  FAIR      59  34  38 S15G22    30.26S
$$

 ***** WEATHER ACROSS CENTRAL AND WESTERN NORTH DAKOTA  *****

CITY           SKY/WX    TMP DP  RH WIND       PRES   REMARKS
BISMARCK       FAIR      64  39  39 S14G20    30.14F
6HR MIN TEMP:  32; 6HR MAX TEMP:  64;

MINOT          FAIR      62  31  31 NW12      30.12S
6HR MIN TEMP:  41; 6HR MAX TEMP:  62;

JAMESTOWN      FAIR      60  37  42 S21G29    30.16F
6HR MIN TEMP:  35; 6HR MAX TEMP:  60;

MINOT AFB      NOT AVBL
GARRISON         N/A     56  38  50 CALM      30.13S
WILLISTON      FAIR      62  31  31 NW10      30.13F
6HR MIN TEMP:  39; 6HR MAX TEMP:  62;

DICKINSON      FAIR      62  23  22 VRB6      30.11F
6HR MIN TEMP:  31; 6HR MAX TEMP:  63;

HETTINGER      FAIR      62  38  40 CALM      30.13F
6HR MIN TEMP:  29; 6HR MAX TEMP:  62;

$$

 *****  OTHER AIRPORT OBSERVATIONS IN OUR AREA  *****

CITY           SKY/WX    TMP DP  RH WIND       PRES   REMARKS
WALHALLA       FAIR      59  41  51 SW15G25   30.11F
GRAFTON AIRPOR NOT AVBL
VALLEY CITY AR NOT AVBL
CANDO          MOCLDY    59  37  44 SW9G15    30.15S
CAVALIER APRT    N/A     61  41  48 SW23      30.11F
GWINNER          N/A     59  39  47 SW17      30.23F
SHEYENNE NWR     N/A     61  37  41 SW14      29.95S
ROLLA          FAIR      54  37  54 W7G16     30.12S
 ***** THE ABOVE OBSERVATIONS ARE NON NWS ARE NOT QUALITY
       CONTROLLED AND MAY MIS-REPORT RAIN FOR SNOW...
$$

  *****  WEATHER ACROSS NORTHERN MINNESOTA  *****

CITY           SKY/WX    TMP DP  RH WIND       PRES   REMARKS
FLAG ISLAND    FAIR      52  28  40 S18G26    30.15F
WARROAD        FAIR      59  37  44 SW22G30   30.19F
ROSEAU         FAIR      57  41  54 SW25      30.18F
HALLOCK        FAIR      63  36  36 SW21G31   30.14F
THF RVR FALLS  NOT AVBL
BAUDETTE       FAIR      59  32  36 S16G26    30.20S
6HR MIN TEMP:  35; 6HR MAX TEMP:  59;

WASKISH        PTSUNNY   57  30  35 S7        30.22F
CROOKSTON      FAIR      59  39  47 SW20G29   30.21F
STEPHEN NDAWN    N/A     57  43  58 S17         N/A
GREENBUSH NDAW   N/A     55  43  62 S20         N/A
$$
  *****  WEATHER ACROSS CENTRAL AND WEST MINNESOTA  *****

CITY           SKY/WX    TMP DP  RH WIND       PRES   REMARKS
FOSSTON        FAIR      57  32  38 S22       30.22F
BEMIDJI        FAIR      60  30  33 SW12      30.24F
6HR MIN TEMP:  33; 6HR MAX TEMP:  60;

PARK RAPIDS    FAIR      59  33  37 S15G23    30.25F
6HR MIN TEMP:  31; 6HR MAX TEMP:  60;

ELBOW LAKE     FAIR      59  36  42 S15       30.28F
6HR MIN TEMP:  35; 6HR MAX TEMP:  59;

WADENA         FAIR      57  34  41 S13G18    30.27F
DETROIT LAKES  FAIR      61  28  29 SW15G22   30.26S
MOORHEAD       FAIR      57  37  47 S12G21    30.24F
FERGUS FALLS   FAIR      59  36  41 S15G21    30.24F
MORRIS MN      FAIR      57  37  47 S13       30.28F
STAPLES        FAIR      57  30  35 S13       30.29F
$$
  *****  WEATHER ELSEWHERE ACROSS MINNESOTA  *****

CITY           SKY/WX    TMP DP  RH WIND       PRES   REMARKS
DULUTH         FAIR      57  29  34 SW13      30.31F
6HR MIN TEMP:  32; 6HR MAX TEMP:  58;

INTRNTL FALLS  FAIR      60  32  34 SW13G22   30.23F
6HR MIN TEMP:  32; 6HR MAX TEMP:  60;

ELY            FAIR      55  19  24 SW9G16    30.28F
CLOQUET        FAIR      57  21  24 S12       30.31F
WHEATON        FAIR      57  34  41 SE15      30.28F
BRAINERD       FAIR      60  31  33 S8        30.30F
6HR MIN TEMP:  27; 6HR MAX TEMP:  60;

HIBBING        FAIR      56  26  31 SW8G18    30.28F
6HR MIN TEMP:  25; 6HR MAX TEMP:  57;

ALEXANDRIA     FAIR      62  33  33 S16       30.30F
6HR MIN TEMP:  36; 6HR MAX TEMP:  62;

SAINT CLOUD    FAIR      59  32  36 S10       30.32F
6HR MIN TEMP:  29; 6HR MAX TEMP:  59;

MINNEAPOLIS    FAIR      59  32  36 SE7       30.33F
6HR MIN TEMP:  35; 6HR MAX TEMP:  60;

$$

  *****  WEATHER ACROSS SOUTH DAKOTA  *****

CITY           SKY/WX    TMP DP  RH WIND       PRES   REMARKS
SIOUX FALLS    FAIR      60  35  39 E15       30.27F
6HR MIN TEMP:  32; 6HR MAX TEMP:  60;

BROOKINGS      FAIR      56  37  49 SE13      30.27F
WATERTOWN      FAIR      56  35  45 S12       30.26F
6HR MIN TEMP:  35; 6HR MAX TEMP:  56;

HURON          FAIR      57  34  41 S12       30.25F
6HR MIN TEMP:  38; 6HR MAX TEMP:  58;

SISSETON         N/A     61  40  45 S16       30.24F
ABERDEEN       FAIR      61  36  39 S17G25    30.23F
6HR MIN TEMP:  29; 6HR MAX TEMP:  62;

MITCHELL       FAIR      57  34  41 S9G18     30.26F
PIERRE         FAIR      58  38  47 S18       30.19F
6HR MIN TEMP:  29; 6HR MAX TEMP:  59;

MOBRIDGE       FAIR      60  40  47 S13G23    30.15F
RAPID CITY     FAIR      59  39  47 CALM      30.14F
6HR MIN TEMP:  30; 6HR MAX TEMP:  60;

$$

  *****  SOME WEATHER IN NEARBY STATES *****

CITY           SKY/WX    TMP DP  RH WIND       PRES   REMARKS
GLASGOW MT     FAIR      60  23  24 W8G23     30.13S
6HR MIN TEMP:  36; 6HR MAX TEMP:  61;

GREAT FALLS MT FAIR      51  18  27 NW12      30.15S
6HR MIN TEMP:  33; 6HR MAX TEMP:  53;

CHEYENNE WY    FAIR      56  30  37 N12G21    30.19S
6HR MIN TEMP:  29; 6HR MAX TEMP:  57;

SCOTTSBLUFF NE FAIR      51  44  77 MISG      30.19F
6HR MIN TEMP:  32; 6HR MAX TEMP:  51;

OMAHA NE       PTSUNNY   66  31  27 NE7       30.20F
6HR MIN TEMP:  41; 6HR MAX TEMP:  66;

DES MOINES IA  FAIR      66  29  24 NE14      30.21F
6HR MIN TEMP:  47; 6HR MAX TEMP:  66;

DAVENPORT IA   FAIR      64  20  18 E20G26    30.27F
6HR MIN TEMP:  44; 6HR MAX TEMP:  64;

CHICAGO IL     PTSUNNY   58  24  27 E16       30.32F
6HR MIN TEMP:  43; 6HR MAX TEMP:  59;

EAU CLAIRE WI  FAIR      60  32  34 S9G25     30.33F
6HR MIN TEMP:  30; 6HR MAX TEMP:  61;

LA CROSSE WI   FAIR      61  27  27 E12       30.33F
6HR MIN TEMP:  36; 6HR MAX TEMP:  61;

$$

  *****  SOME NATIONAL WEATHER *****

CITY           SKY/WX    TMP DP  RH WIND       PRES   REMARKS
LA GUARDIA NY  FAIR      62  15  16 E6        30.36F
6HR MIN TEMP:  50; 6HR MAX TEMP:  62;

RALEIGH NC     CLOUDY    68  44  42 S6        30.34F
6HR MIN TEMP:  48; 6HR MAX TEMP:  69;

ATLANTA GA     CLOUDY    59  58  96 SE13G23   30.18F
6HR MIN TEMP:  58; 6HR MAX TEMP:  60; 6HR PCP:  0.10;

NEW ORLEANS LA PTSUNNY   77  69  76 SW15G23   29.87F
6HR MIN TEMP:  70; 6HR MAX TEMP:  77; 6HR PCP:  0.18;

OKLAHOMA CITY  PTSUNNY   55  43  63 N24G31    30.08S
6HR MIN TEMP:  43; 6HR MAX TEMP:  56;

ALBUQUERQUE NM PTSUNNY   64  28  25 CALM      30.17F
6HR MIN TEMP:  43; 6HR MAX TEMP:  64;

SALT LAKE CITY FAIR      69  29  22 VRB3      30.09F
6HR MIN TEMP:  47; 6HR MAX TEMP:  70;

LOS ANGELES CA FAIR



USA.gov is the U.S. government's official web portal to all federal, state and local government web resources and services.